This demonstration page uses our WeatherBlox Daily Observations layout. Learn more.

Left ArrowRight Arrow

53.62937, 11.41316

Hourly Observations for January 21, 2018

Temp ( °F °C ) Dew Point ( °F °C ) Humidity (%) Winds ( mph kmh ) Pressure ( in mb ) Visibility ( mi km ) Precip ( " mm )
6:50 am 06:50 Mostly Cloudy with Freezing Fog 30 -1 30 -1 100 100 VRB 2 4 29.80 1009 0 0 N/A
7:20 am 07:20 Mostly Cloudy with Freezing Fog 30 -1 30 -1 100 100 VRB 2 4 29.80 1009 0 0 N/A
7:50 am 07:50 Mostly Cloudy with Freezing Fog 28 -2 28 -2 100 100 VRB 1 2 29.83 1010 0 0 N/A
8:20 am 08:20 Mostly Cloudy with Freezing Fog 28 -2 28 -2 100 100 VRB 1 2 29.83 1010 0 0 N/A
8:50 am 08:50 Mostly Cloudy with Freezing Fog 28 -2 28 -2 100 100 VRB 1 2 29.85 1011 0 0 N/A
9:20 am 09:20 Mostly Cloudy with Freezing Fog 28 -2 28 -2 100 100 VRB 2 4 29.88 1012 0 0 N/A
9:50 am 09:50 Mostly Cloudy with Freezing Fog 28 -2 28 -2 100 100 SW 1 2 29.88 1012 0 0 N/A
10:20 am 10:20 Mostly Cloudy with Freezing Fog 28 -2 28 -2 100 100 VRB 2 4 29.91 1013 0 0 N/A
10:50 am 10:50 Mostly Cloudy with Freezing Fog 28 -2 28 -2 100 100 VRB 2 4 29.91 1013 0 0 N/A
11:20 am 11:20 Mostly Cloudy with Freezing Fog 30 -1 30 -1 100 100 VRB 2 4 29.94 1014 0 0 N/A
11:50 am 11:50 Mostly Cloudy with Freezing Fog 30 -1 30 -1 100 100 VRB 2 4 29.94 1014 0 0 N/A
12:20 pm 12:20 Mostly Cloudy with Freezing Fog 30 -1 30 -1 100 100 VRB 2 4 29.94 1014 0 0 N/A
12:50 pm 12:50 Partly Cloudy with Freezing Fog 30 -1 30 -1 100 100 VRB 2 4 29.97 1015 0 0 N/A
1:20 pm 13:20 Partly Cloudy with Freezing Fog 30 -1 30 -1 100 100 VRB 2 4 29.97 1015 0 0 N/A
1:50 pm 13:50 Cloudy with Freezing Fog 30 -1 30 -1 100 100 VRB 1 2 29.97 1015 0 0 N/A
2:20 pm 14:20 Cloudy with Freezing Fog 30 -1 30 -1 100 100 VRB 2 4 29.97 1015 0 0 N/A
2:50 pm 14:50 Cloudy with Freezing Fog 30 -1 30 -1 100 100 VRB 2 4 30.00 1016 0 0 N/A
3:20 pm 15:20 Cloudy with Freezing Fog 30 -1 30 -1 100 100 SE 3 6 30.00 1016 0 0 N/A
3:50 pm 15:50 Cloudy with Freezing Fog 30 -1 30 -1 100 100 VRB 2 4 30.00 1016 0 0 N/A
4:20 pm 16:20 Cloudy with Freezing Fog 30 -1 30 -1 100 100 VRB 2 4 30.00 1016 0 0 N/A
4:50 pm 16:50 Cloudy with Freezing Fog 30 -1 30 -1 100 100 VRB 1 2 30.03 1017 0 0 N/A
5:20 pm 17:20 Cloudy with Freezing Fog 30 -1 30 -1 100 100 SSE 3 6 30.03 1017 0 0 N/A
5:50 pm 17:50 Cloudy with Freezing Fog 30 -1 30 -1 100 100 SSE 3 6 30.03 1017 0 0 N/A
6:20 pm 18:20 Cloudy with Freezing Fog 30 -1 30 -1 100 100 S 6 9 30.03 1017 0 0 N/A

Powered by AerisWeather